COSMOS 648

Satellite information

Favourite Embed

Satellite Type and Status

PAYLOADIN ORBIT

Key statistics

Satellite COSMOS 648 at a glance.

Uptime

18824

Days in orbit

Revolutions

≈ 12.5

Per day

Orbit

LEO

Low Earth Orbit

Inclination

74.0

Latest

Satellite identification and parameters

Extended collection of information and parameters for COSMOS 648.

Object identification

Identified? True

Debris? False

Object name: COSMOS 648

International designator: 1974-024H

Object number (NORAD): 7272

Object ID (CCSDS): 7272

Country: COMMONWEALTH OF INDEPENDENT STATES (CIS)

Current information (Y/N): Y

RCS size: MEDIUM

Orbital parameters

Period: 115.166 minutes

Inclination: 74.018 deg

SMA: 7841.076 km

Apoapsis: 1489.426 km

Periapsis: 1436.455 km

RAAN: 230.4659 deg

Eccentricy: 0.0033778

Argument of periapsis: 302.9858 deg

Mean anomaly: 86.2249 deg

Mean motion: 12.50372165 rev/day

Mean motion (dot): -0.00000015 rev/day2

B* drag term: 0.000009163 1/REarth

Two-line elements (TLE)

Creation date: Nov. 4, 2025, 11:56 p.m.

Reference frame: TEME

Reference center: EARTH

Epoch: Nov. 4, 2025, 7:02 p.m. UTC

TLE line 0: 0 COSMOS 648

TLE line 1: 1 7272U 74024H 25308.79361365 -.00000015 00000-0 91630-5 0 9994

TLE line 2: 2 7272 74.0180 230.4659 0033778 302.9858 86.2249 12.50372165352353

Live tracking on map

Real-time ground track for satellite COSMOS 648.

In-orbit conjunctions

There are no conjunctions computed for COSMOS 648, at the moment. Check back to stay up to date, as we update our databases every day.

Go to all conjunctions

Associated space launch

Military communications satellites

COSMOS 648 was lifted into orbit during the mission ‘Kosmos-3M | Strela-1M 65-72’, on board a Kosmos-3M space rocket.

The launch took place on April 23, 1974, 2:14 p.m. from 132/2.

For more information about the launch, click the button.

Launch to space Kosmos-3M | Strela-1M 65-72
Kosmos-3M | Strela-1M 65-72

Agency: N/A

Status: Launch Successful

Launch date: April 23, 1974, 2:14 p.m. UTC

Rocket: Kosmos-3M

Launch pad: 132/2

Location: Plesetsk Cosmodrome, Russian Federation

...

Latest news about this satellite

There are no fresh news available about this satellite. Check back as we update our databases every day.


Newsletter sign-up

Weekly statistics, charts and insights to help you stay on top of the space industry.